CW7443 Weather Reports


Display with metric or nautical units.
time (UTC)temp
F
wind
direction
speed
MPH
gust
MPH
rain 1hr
in
rain 24hr
in
rain mn
in
humidity
%
barometer
mb
20260504043821 49 189 0.0 3.0 0.00 0.00 0.00 72 1012.9
20260504043326 49 196 0.0 0.0 0.00 0.00 0.00 74 1012.9
20260504042828 49 196 0.0 0.0 0.00 0.00 0.00 75 1012.9
20260504042334 49 196 0.0 0.0 0.00 0.00 0.00 75 1012.9
20260504041822 48 196 0.0 0.0 0.00 0.00 0.00 77 1012.9
20260504041325 48 196 0.0 0.0 0.00 0.00 0.00 77 1012.9
20260504040829 48 196 0.0 0.0 0.00 0.00 0.00 77 1012.9
20260504040315 48 196 0.0 0.0 0.00 0.00 0.00 78 1012.9
20260504035820 48 196 0.0 0.0 0.00 0.00 0.00 77 1013.0
20260504035331 48 196 0.0 0.0 0.00 0.00 0.00 78 1013.0
20260504034815 48 196 0.0 0.0 0.00 0.00 0.00 78 1013.0
20260504034337 48 196 0.0 0.0 0.00 0.00 0.00 78 1013.3
20260504033826 48 196 0.0 0.0 0.00 0.00 0.00 79 1013.3
20260504033334 48 196 0.0 0.0 0.00 0.00 0.00 78 1013.3
20260504032841 48 196 0.0 0.0 0.00 0.00 0.00 78 1013.3
20260504032345 48 196 0.0 0.0 0.00 0.00 0.00 79 1013.3
20260504031831 48 196 0.0 0.0 0.00 0.00 0.00 78 1013.3
20260504031334 48 196 0.0 0.0 0.00 0.00 0.00 77 1013.4
20260504030822 48 196 0.0 0.0 0.00 0.00 0.00 77 1013.4
20260504030327 48 196 0.0 0.0 0.00 0.00 0.00 77 1013.4
20260504025829 48 196 0.0 0.0 0.00 0.00 0.00 75 1013.5
20260504025357 48 196 0.0 0.0 0.00 0.00 0.00 75 1013.5
20260504024841 48 196 0.0 0.0 0.00 0.00 0.00 75 1013.5
20260504024324 48 196 0.0 0.0 0.00 0.00 0.00 74 1013.5
20260504023829 48 196 0.0 0.0 0.00 0.00 0.00 74 1013.5
20260504023335 49 196 0.0 0.0 0.00 0.00 0.00 74 1013.5
20260504022836 49 196 0.0 0.0 0.00 0.00 0.00 73 1013.7
20260504022325 49 196 0.0 0.0 0.00 0.00 0.00 73 1013.7
20260504021830 49 196 0.0 0.0 0.00 0.00 0.00 73 1013.7
20260504021333 49 196 0.0 0.0 0.00 0.00 0.00 73 1013.7
20260504020823 50 196 0.0 0.0 0.00 0.00 0.00 72 1013.7
20260504020331 50 196 0.0 0.0 0.00 0.00 0.00 72 1013.7
20260504015836 50 196 0.0 0.0 0.00 0.00 0.00 72 1013.6
20260504015341 50 196 0.0 0.0 0.00 0.00 0.00 72 1013.6
20260504014826 50 196 0.0 0.0 0.00 0.00 0.00 72 1013.6
20260504014328 50 196 0.0 0.0 0.00 0.00 0.00 72 1013.5
20260504013833 50 196 0.0 0.0 0.00 0.00 0.00 72 1013.5
20260504013320 51 196 0.0 0.0 0.00 0.00 0.00 71 1013.5
20260504012825 51 196 0.0 0.0 0.00 0.00 0.00 70 1013.5
20260504012330 51 196 0.0 0.0 0.00 0.00 0.00 70 1013.5
20260504011835 51 196 0.0 0.0 0.00 0.00 0.00 68 1013.5
20260504011322 51 196 0.0 0.0 0.00 0.00 0.00 66 1013.5
20260504010825 51 196 0.0 0.0 0.00 0.00 0.00 66 1013.5
20260504010315 51 196 0.0 0.0 0.00 0.00 0.00 66 1013.5
20260504005817 51 196 0.0 0.0 0.00 0.00 0.00 64 1013.5
20260504005325 52 196 0.0 3.0 0.00 0.00 0.00 64 1013.5
20260504004831 52 196 0.0 3.0 0.00 0.00 0.00 63 1013.5
20260504004352 52 236 0.0 3.0 0.00 0.00 0.00 62 1013.7
20260504003820 52 250 0.0 5.0 0.00 0.00 0.00 63 1013.7
20260504003328 52 250 2.0 10.0 0.00 0.00 0.00 62 1013.7
20260504002830 52 275 2.0 10.0 0.00 0.00 0.00 61 1014.0
20260504002334 53 139 3.0 11.0 0.00 0.00 0.00 59 1014.0
20260504001827 53 56 1.0 11.0 0.00 0.00 0.00 58 1014.0
20260504001330 53 136 2.0 10.0 0.00 0.00 0.00 57 1013.8
20260504000835 54 22 2.0 5.0 0.00 0.00 0.00 55 1013.8
20260504000346 54 140 1.0 8.0 0.00 0.00 0.00 55 1013.8
20260503235828 54 223 2.0 8.0 0.00 0.00 0.00 55 1013.9
20260503235332 54 24 3.0 9.0 0.00 0.00 0.00 54 1013.9
20260503234815 55 167 1.0 9.0 0.00 0.00 0.00 53 1013.9
20260503234320 55 98 1.0 12.0 0.00 0.00 0.00 51 1013.6
20260503233824 56 254 1.0 12.0 0.00 0.00 0.00 50 1013.6
20260503233334 56 42 3.0 10.0 0.00 0.00 0.00 48 1013.6
20260503232817 57 140 2.0 9.0 0.00 0.00 0.00 45 1013.4
20260503232329 57 107 4.0 9.0 0.00 0.00 0.00 43 1013.4
20260503231855 57 92 3.0 7.0 0.00 0.00 0.00 42 1013.4
20260503231355 57 115 1.0 7.0 0.00 0.00 0.00 43 1013.4
20260503230823 57 182 2.0 7.0 0.00 0.00 0.00 42 1013.4
20260503230333 57 205 2.0 7.0 0.00 0.00 0.00 43 1013.4
20260503225834 57 273 0.0 7.0 0.00 0.00 0.00 44 1013.5
20260503225320 58 93 2.0 6.0 0.00 0.00 0.00 43 1013.5
20260503224846 58 32 1.0 14.0 0.00 0.00 0.00 43 1013.5
20260503224330 58 168 3.0 14.0 0.00 0.00 0.00 41 1013.8
20260503223836 58 68 2.0 8.0 0.00 0.00 0.00 42 1013.8
20260503223321 58 169 2.0 9.0 0.00 0.00 0.00 41 1013.8
20260503222823 58 161 2.0 11.0 0.00 0.00 0.00 42 1013.9
20260503222351 58 205 2.0 11.0 0.00 0.00 0.00 41 1013.9
20260503221819 58 124 2.0 9.0 0.00 0.00 0.00 41 1013.9
20260503221325 59 158 4.0 9.0 0.00 0.00 0.00 39 1014.0
20260503220831 59 171 1.0 6.0 0.00 0.00 0.00 40 1014.0
20260503220356 59 195 1.0 8.0 0.00 0.00 0.00 41 1014.0
20260503215839 59 136 2.0 11.0 0.00 0.00 0.00 40 1014.0
20260503215323 59 137 3.0 11.0 0.00 0.00 0.00 40 1014.0
20260503214832 59 179 2.0 9.0 0.00 0.00 0.00 41 1014.0
20260503214337 58 87 3.0 9.0 0.00 0.00 0.00 41 1014.1
20260503213822 58 180 2.0 9.0 0.00 0.00 0.00 39 1014.1
20260503213346 58 169 2.0 7.0 0.00 0.00 0.00 41 1014.1
20260503212851 59 193 2.0 10.0 0.00 0.00 0.00 41 1014.1
20260503212335 59 155 2.0 10.0 0.00 0.00 0.00 40 1014.1
20260503211839 59 109 2.0 7.0 0.00 0.00 0.00 40 1014.1
20260503211322 59 84 1.0 6.0 0.00 0.00 0.00 43 1014.5
20260503210831 59 165 2.0 10.0 0.00 0.00 0.00 40 1014.5
20260503210320 59 163 2.0 10.0 0.00 0.00 0.00 40 1014.5
20260503205822 59 169 1.0 7.0 0.00 0.00 0.00 44 1014.5
20260503205347 59 227 2.0 6.0 0.00 0.00 0.00 40 1014.5
20260503204830 59 175 2.0 10.0 0.00 0.00 0.00 40 1014.5
20260503204336 59 167 2.0 10.0 0.00 0.00 0.00 38 1014.5
20260503203822 59 163 2.0 9.0 0.00 0.00 0.00 41 1014.5
20260503203327 60 194 3.0 11.0 0.00 0.00 0.00 41 1014.5
20260503202829 59 289 2.0 11.0 0.00 0.00 0.00 39 1014.7
20260503202335 59 84 3.0 10.0 0.00 0.00 0.00 38 1014.7
20260503201818 59 102 2.0 10.0 0.00 0.00 0.00 38 1014.7
20260503201322 59 180 4.0 10.0 0.00 0.00 0.00 38 1014.6
20260503200835 60 167 4.0 10.0 0.00 0.00 0.00 38 1014.6
20260503200340 60 164 2.0 8.0 0.00 0.00 0.00 39 1014.6
20260503195839 59 128 3.0 11.0 0.00 0.00 0.00 44 1015.1
20260503195325 58 165 4.0 11.0 0.00 0.00 0.00 41 1015.1
20260503194834 58 169 3.0 10.0 0.00 0.00 0.00 40 1015.1
20260503194337 59 146 3.0 12.0 0.00 0.00 0.00 44 1015.3
20260503193821 58 132 4.0 12.0 0.00 0.00 0.00 42 1015.3
20260503193325 59 176 2.0 7.0 0.00 0.00 0.00 40 1015.3
20260503192850 59 236 2.0 7.0 0.00 0.00 0.00 43 1015.6
20260503192336 59 152 2.0 7.0 0.00 0.00 0.00 39 1015.6
20260503191818 59 157 2.0 8.0 0.00 0.00 0.00 41 1015.6
20260503191340 59 62 2.0 9.0 0.00 0.00 0.00 45 1015.9
20260503190828 58 97 4.0 10.0 0.00 0.00 0.00 40 1015.9
20260503190316 59 83 1.0 10.0 0.00 0.00 0.00 42 1015.9
20260503185825 58 215 3.0 9.0 0.00 0.00 0.00 44 1016.1
20260503185330 58 128 2.0 9.0 0.00 0.00 0.00 47 1016.1
20260503184835 58 129 2.0 9.0 0.00 0.00 0.00 41 1016.1
20260503184316 58 140 2.0 9.0 0.00 0.00 0.00 42 1016.2
20260503183825 57 162 2.0 9.0 0.00 0.00 0.00 42 1016.2
20260503183332 57 138 3.0 8.0 0.00 0.00 0.00 41 1016.2
20260503182818 57 222 1.0 14.0 0.00 0.00 0.00 45 1016.3
20260503182324 57 150 4.0 14.0 0.00 0.00 0.00 41 1016.3
20260503181844 57 278 2.0 14.0 0.00 0.00 0.00 45 1016.3
20260503181327 57 203 4.0 14.0 0.00 0.00 0.00 43 1016.6
20260503180833 57 117 2.0 9.0 0.00 0.00 0.00 44 1016.6
20260503180322 57 147 2.0 9.0 0.00 0.00 0.00 48 1016.6
20260503175825 58 205 1.0 8.0 0.00 0.00 0.00 44 1016.7
20260503175350 58 67 2.0 8.0 0.00 0.00 0.00 41 1016.7
20260503174813 58 99 2.0 7.0 0.00 0.00 0.00 41 1016.7
20260503174320 58 153 1.0 6.0 0.00 0.00 0.00 48 1016.9
20260503173845 58 176 3.0 8.0 0.00 0.00 0.00 41 1016.9
20260503173349 58 90 1.0 8.0 0.00 0.00 0.00 46 1016.9
20260503172829 57 227 3.0 7.0 0.00 0.00 0.00 44 1017.2
20260503172336 57 231 1.0 10.0 0.00 0.00 0.00 45 1017.2
20260503171820 57 84 2.0 10.0 0.00 0.00 0.00 46 1017.2
20260503171322 56 106 2.0 6.0 0.00 0.00 0.00 49 1017.2
20260503170831 56 126 1.0 8.0 0.00 0.00 0.00 46 1017.2
20260503170318 56 128 1.0 8.0 0.00 0.00 0.00 47 1017.2
20260503150833 51 113 2.0 8.0 0.00 0.00 0.00 55 1018.2
20260503150336 51 168 3.0 7.0 0.00 0.00 0.00 55 1018.2
20260503131345 44 113 0.0 6.0 0.00 0.00 0.00 67 1018.5
20260503130849 43 179 2.0 6.0 0.00 0.00 0.00 68 1018.5
20260503130318 43 152 1.0 5.0 0.00 0.00 0.00 70 1018.5
20260503110350 34 51 0.0 0.0 0.00 0.00 0.00 95 1017.7
20260503090335 32 49 0.0 0.0 0.00 0.00 0.00 94 1017.1
20260503081325 33 49 0.0 0.0 0.00 0.00 0.00 94 1017.1
20260503080850 33 49 0.0 0.0 0.00 0.00 0.00 93 1017.1
20260503080355 33 49 0.0 0.0 0.00 0.00 0.00 93 1017.1
20260503072825 34 49 0.0 0.0 0.00 0.00 0.00 93 1017.0
20260503072350 34 49 0.0 0.0 0.00 0.00 0.00 92 1017.0
20260503071834 34 49 0.0 0.0 0.00 0.00 0.00 92 1017.0
20260503071322 34 49 0.0 0.0 0.00 0.00 0.00 92 1016.9
20260503070823 34 49 0.0 0.0 0.00 0.00 0.00 93 1016.9
20260503070329 34 49 0.0 0.0 0.00 0.00 0.00 93 1016.9
20260503060326 35 49 0.0 0.0 0.00 0.00 0.00 93 1017.2
20260503054823 35 49 0.0 0.0 0.00 0.00 0.00 93 1017.3
20260503054325 35 49 0.0 0.0 0.00 0.00 0.00 94 1017.3
20260503053836 35 49 0.0 0.0 0.00 0.00 0.00 95 1017.3
20260503053318 35 49 0.0 0.0 0.00 0.00 0.00 95 1017.3
20260503052821 35 49 0.0 0.0 0.00 0.00 0.00 95 1017.2
20260503052346 35 49 0.0 0.0 0.00 0.00 0.00 95 1017.2
20260503051815 35 49 0.0 0.0 0.00 0.00 0.00 94 1017.2
20260503051340 35 49 0.0 0.0 0.00 0.00 0.00 94 1017.2
20260503050830 35 49 0.0 0.0 0.00 0.00 0.00 94 1017.2
20260503050316 35 49 0.0 0.0 0.00 0.00 0.00 94 1017.2
20260503045819 35 49 0.0 0.0 0.00 0.00 0.00 94 1017.2
20260503045325 35 49 0.0 0.0 0.00 0.00 0.00 94 1017.2
20260503044833 35 49 0.0 0.0 0.00 0.00 0.00 93 1017.2
20260503044334 35 49 0.0 0.0 0.00 0.00 0.00 92 1017.2